FALCON 9 R/B (45921 NORAD) Tracking and Keplerian Element Data

This shows tracking and keplerian element data for the satellite.

Feedback or suggestion? Click here.




ElementValue
Catalog45921
NameFALCON 9 R/B
Epoch Orbit51
Epoch Day231.87929413
Epoch Year2020
RAAN86.6195
Inclination27.6611
Eccentricity0.7739026
Argument of Perigee191.0603
Mean Anonmoly127.3726
Mean Motion1.7396944
Decay Rate2.812E-05
L11 45921U 20048B 20231.87929413 .00002812 00000-0 67788-3 0 9998
L22 45921 27.6611 86.6195 7739026 191.0603 127.3726 1.73969440 512

Live tracking and technical data element details for FALCON 9 R/B (NORAD 45921). FALCON 9 R/B can be tracked NOW for your location showing map with azimuth and elevation plus other details from your city location.

Track the satellite on the map from your city or location and see movement details for azimuth, elevation, latitude, longitude, range, height, and movement on the map or in text.







IsCatalogInMostPopularTable: catalog: 45921, numindb: 24
Update: records affected: 1



GetName: 45921 FALCON 9 R/B

Hit Count: updated at: Tue, 01 Dec 2020 20:57:58 GMT